Starlink 11330

operational
NORAD ID: 62011 Int'l Des: 2024-213 Owner: SPXS Country: US Constellation: starlink
LEOCIRCULAR

About Starlink 11330

Description loading...

Live Position

Loading 3D Globe...

Upcoming Passes

Altitude History

Altitude vs Time

uPlot chart will show altitude changes over time

Two-Line Element Set

1 62011U 24213D 25354.62214970 .00220343 00000-0 17740-2 0 9997
2 62011 53.1584 71.2670 0001519 62.4723 297.6449 15.69733449 62494
Epoch: Dec 20, 2025 • Age: 5 hours

Current Status

Altitude 364.1 km
Velocity 7.69 km/s
Sub-Earth Point -14.69°S, 133.6°W
Launch Date Nov 18, 2024
Age 1 years
Type internet

Technical Details

Classification Payload
Mass 960.00 kg
Dry Mass 910.00 kg
Total Mass 960.00 kg
Length 0.30 m
Diameter 4.10 m
Span 29.00 m
Shape Box + pan
Manufacturer SPXS
Bus Type Starlink V2MD
Phase Status In Orbit
Owner/State SPXS/US

Large Constellations

Loading constellations...